Regional Weather Roundup
Issued by NWS

Home | Current Version | Previous Version | Text Only | Print | Product List | Glossary On
Versions: 1 2 3 4 5 6 7 8 9 10 11 12 13 14 15 16 17 18 19 20 21 22 23 24 25 26 27 28 29 30 31 32 33 34 35 36 37 38 39 40 41 42 43 44 45 46 47 48 49 50
000
ASUS44 KLUB 040601
RWRTX
WEST TEXAS WEATHER ROUNDUP
NATIONAL WEATHER SERVICE LUBBOCK TX
1200 AM CST WED MAR 04 2015

NOTE: "FAIR" INDICATES FEW OR NO CLOUDS BELOW 12,000 FEET WITH NO
SIGNIFICANT WEATHER AND/OR OBSTRUCTIONS TO VISIBILITY.

TXZ004-006>008-010-012-014-016-OKZ002-040700-
TEXAS PANHANDLE/OKLAHOMA PANHANDLE

CITY           SKY/WX    TMP DP  RH WIND       PRES   REMARKS
AMARILLO       CLOUDY    38  35  89 NE15      29.88S WCI  29
BORGER         CLOUDY    37  30  75 N15       29.93R WCI  28
CANADIAN       CLOUDY    38  32  77 NE15      29.94R WCI  30
DALHART        CLOUDY    31  28  89 NE15      29.92R WCI  20
DUMAS          CLOUDY    31  29  92 NE14      29.91F WCI  21
GUYMON         LGT SNOW  29  26  89 NE14      29.97S FOG     WCI  18
$$

TXZ026-029-035-045-048-040700-
SOUTHERN PANHANDLE/SOUTH PLAINS/ROLLING PLAINS

CITY           SKY/WX    TMP DP  RH WIND       PRES   REMARKS
CHILDRESS      MOCLDY    48  45  89 E7        29.88R
SEMINOLE       CLOUDY    50  47  91 S5        29.86F
LUBBOCK        CLOUDY    51  45  79 S9        29.83F
$$

TXZ052-054-060>062-072-078-127-140-154-169-040700-
PERMIAN BASIN/CONCHO VALLEY/BIG COUNTRY/EDWARDS PLATEAU

CITY           SKY/WX    TMP DP  RH WIND       PRES   REMARKS
ABILENE        CLOUDY    51  49  92 W5        29.88R
BRADY          CLOUDY    55  55 100 S9        29.85F
BROWNWOOD      CLOUDY    55  55 100 S5        29.87R
JUNCTION       CLOUDY    56  53  90 W5        29.86F
MIDLAND        CLOUDY    50  47  89 E5        29.85F
ODESSA         CLOUDY    48  45  89 E6        29.85F
SAN ANGELO     MOCLDY    53  50  89 NW3       29.85F
WINK           LGT RAIN  55  47  74 E5        29.84S
$$

TXZ055-058-074-075-080-082-040700-
FAR WEST/SOUTHWEST MOUNTAINS/TRANS PECOS

CITY           SKY/WX    TMP DP  RH WIND       PRES   REMARKS
DRYDEN           N/A     54  50  86 E7        29.83F
EL PASO        MOCLDY    54  46  74 S9        29.85F
FORT STOCKTON  CLOUDY    52  48  86 SW6       29.87S
MARFA          CLOUDY    52  45  76 N5        29.93S
$$

TXZ014-016-019-021>030-083-040700
TEXAS TECH WEST TEXAS MESONET/TEXAS PANHANDLE/NORTHERN SOUTH PLAINS

CITY           SKY/WX    TMP DP  RH WIND       PRES   REMARKS
ABERNATHY 5ENE   N/A     48  43  83 S9        29.84S
AMARILLO 9NNE    N/A     37  32  82 NE15      29.89S WCI  28
AMARILLO 7SSE    N/A     38  37  96 NE14      29.88S WCI  30
AMHERST 1NE      N/A     46  42  85 S10       29.83S
BOOTLEG 11WNW    N/A     39  35  85 NW9       29.86R WCI  33
CANADIAN 6E      N/A     37  29  74 NE16      29.93R WCI  27
CAPROCK CYN SP   N/A     47  44  87 NE7       29.85R
CHILDRESS 2NNE   N/A     47  44  92 NE5       29.87R
CLARENDON 2WSW   N/A     41  38  89 N14       29.88R
CLAUDE 12SW      N/A     41  39  90 NE10      29.86R
DIMMITT 2NE      N/A     44  40  87 S10       29.82R
FLOYDADA 2NNE    N/A     51  41  69 S9        29.82F
FRIONA 2NE       N/A     45  41  86 S9        29.83R
GOODLETT 3W      N/A     47  44  89 NE5       29.86R
HART 3N          N/A     46  40  80 S7        29.81F
HEREFORD 2NW     N/A     47  40  77 S2        29.83R
MCLEAN 1E        N/A     37  36  96 N10       29.87S WCI  30
MEMPHIS 1NE      N/A     47  42  83 NE8       29.87S
MULESHOE 2SSW    N/A     49  43  82 S10       29.81S
OLTON 6S         N/A     46  40  81 S13       29.82F
PALO DURO SP     N/A     42  37  85 N5        29.88R
PAMPA 2E         N/A     35  32  88 NE14      29.89S WCI  26
PLAINVIEW 1S     N/A     49  42  77 S12       29.81F
SILVERTON 7ESE   N/A     46  42  86 NE8       29.84R
TULIA 2ENE       N/A     43  40  90 E6        29.82S
TURKEY 2WSW      N/A     47  45  91 NE5       29.83R
UMBARGER 3NNE    N/A     38  36  94 NE13      29.86S WCI  30
$$

TXZ033>036-039>041-045>048-040700
TEXAS TECH WEST TEXAS MESONET/SOUTH PLAINS

CITY           SKY/WX    TMP DP  RH WIND       PRES   REMARKS
AIKEN 3WSW       N/A     48  42  79 S13       29.83F
ANDREWS 2NE      N/A     51  47  84 E3        29.86F
ANTON 6SSW       N/A     48  44  88 S9        29.83S
BROWNFIELD 2S    N/A     49  45  87 S10       29.85F
DENVR CTY 7WNW   N/A     48  44  85 S9        29.86S
GAIL 2ESE        N/A     50  47  89 S6        29.86S
LAMESA 2SE       N/A     49  48  95 S5        29.87S
LEVELLAND 4S     N/A     48  43  85 S13       29.83F
LUBBOCK 3WNW     N/A     52  45  77 S9        29.84S
MORTON 1ENE      N/A     49  43  80 S10       29.83F
ODONNELL 1N      N/A     51  46  86 S7        29.86F
PLAINS 3N        N/A     49  46  89 S9        29.85F
RALLS 1SE        N/A     51  45  80 S8        29.85S
REESE CENTER     N/A     48  45  88 S12       29.83F
SEAGRAVES 1SW    N/A     50  47  87 S9        29.86S
SEMINOLE 2NNE    N/A     50  47  87 S6        29.86F
SLATON 2NE       N/A     51  45  78 S10       29.84F
SNYDER 3E        N/A     49  47  93 S5        29.87R
SUNDOWN 8SW      N/A     48  44  85 S13       29.85S
TAHOKA 3NNE      N/A     51  46  84 S8        29.84F
WOLFFORTH 6SSW   N/A     50  49  99 S10       29.84F
$$

TXZ031-032-036>038-042>044-040700-
TEXAS TECH WEST TEXAS MESONET/ROLLING PLAINS

CITY           SKY/WX    TMP DP  RH WIND       PRES   REMARKS
ASPERMONT 3NE    N/A     49  47  93 SE6       29.86R
FLUVANNA 3WNW    N/A     49  46  88 S3        29.87R
GRAHAM 5SSW      N/A     54  45  73 S6        29.86F
GUTHRIE 10WSW    N/A     50  47  90 SW3       29.85R
HASKELL 1NW      N/A     51  47  89 S5        29.85S
KNOX CITY 3NW    N/A     49  46  88 SE5       29.85F
LK A HENRY 1NW   N/A     54  47  75 S5        29.85S
NORTHFIELD 1S    N/A     51  48  90 E6        29.84R
ODELL 4ENE       N/A     47  46  95 E5        29.87S
PADUCAH 10SW     N/A     49  47  92 S7        29.83F
POST 1NE         N/A     53  47  79 SW5       29.85F
RRING SPRGS 3N   N/A     51  46  83 S6        29.83S
SEYMOUR 3NW      N/A     48  46  92 E2        29.85F
SPUR 1W          N/A     51  47  87 SW1       29.86R
WEINERT 2NNE     N/A     47  46  95 SE3       29.85F
WHITE RVR 6NE    N/A     52  45  76 S5        29.84S
$$

TXZ052-054-060>062-072-078-127-140-154-169-040700-
TEXAS TECH WEST TEXAS MESONET/PERMIAN BASIN/
CONCHO VALLEY/BIG COUNTRY/EDWARDS PLATEAU

CITY           SKY/WX    TMP DP  RH WIND       PRES   REMARKS
COYANOSA 2N      N/A     53  46  76 SE5       29.87R
JUNCTION 1SSW    N/A     56  53  91 W1        29.87S
MERTZON 3NNE     N/A     53  49  88 SW1       29.88S
SAN ANGELO 7NW   N/A     53  49  87 W2        29.85F
STRLNG CT 4WSW   N/A     52  50  91 CALM      29.87F
ST LAWRNCE 5SW   N/A     52  51  98 E5        29.85F
SWEETWATR 11SW   N/A     52  50  95 CALM      29.87S
WALL 1E          N/A     51  48  88 NW2       29.86F
$$

TXZ055-058-074-075-080-082-040700-
TEXAS TECH WEST TEXAS MESONET/FAR WEST/SOUTHWEST MOUNTAINS/TRANS PECOS

CITY           SKY/WX    TMP DP  RH WIND       PRES   REMARKS
PRSMN GAP BBNP   N/A     57  52  82 NE14      29.84S
$$



USA.gov is the U.S. government's official web portal to all federal, state and local government web resources and services.